OBJECT XJ, 65730

Orbit data source: Space-Track

You're viewing an Uncataloged Satellite

Recently launched and/or uncataloged satellites may have evolving metadata. Metadata may include but not limited to: Owner, Maufacturer, Bus, Motor, and Mission.

OBJECT XJ, 65730 is a Japanese satellite in LEO that was delivered to and deployed from the ISS. Unknown objects in Earth's orbit typically refer to objects detected orbiting the Earth but have not yet been identified or cataloged. These objects could be anything from previously untracked satellites, spent rocket stages, debris from satellite collisions, or even natural meteoroids temporarily captured by Earth's gravity.

Not visible in the next 10 days
Identifier
65730, 1998-067XJ
Orbit
LEO
Country
Flag of JPJP / JPN
Related business
None
Manufacturer
Unknown
Mission
Operational spacecraft
Bus & Motor
Unknown
Mass
Unknown
Launch date (UTC)
1998-11-20 (27 years ago)
Launch vehicle
FALCON 9
Launch site
Tyuratam Missile And Space Complex (TTMTR)
Object type
Unknown
Shape & HBR
Unknown shape, 0.1 m
Radar Cross Section
RCS unknown

Expand to show TLE details & history
Last TLE update: 1 week ago

TLE from 1 week ago
0 OBJECT XJ
1 65730U 98067XJ  25336.82362581  .06330363  11931-4  22859-2 0  9996
2 65730  51.6061 180.4655 0010115 256.3912 103.5981 16.23931094 11688
Epoch: 2025-12-02T19:46Z
TLE epoch observation values (Epoch: 2025-12-02T19:46:01.269Z)
Latitude
-0.00007°
Longitude
172.05691°
Altitude
211.234 km
Speed
7.78 km/s
True Right ascension
12h 01m 51s
True Declination
0° 00' 00"
Sunlit
Object was in daylight at epoch
Visualization orbit readout
Latitude
Unknown
Longitude
Unknown
Altitude
Unknown
Speed
Unknown
Apparent Right ascension
Unknown
Apparent Declination
Unknown
Sunlit
N/A
Visualization observer readout
Local Sidereal Time
16:22:35
Azimuth
Unknown
Elevation
Unknown
Doppler factor
Unknown
Orbital elements
Apogee altitude
216.093 km
Perigee altitude
202.766 km
Semi-major axis
6,587.567 km
Eccentricity
0.00101
Inclination
51.6061°
RAAN
180.4655°
Arg. of periapsis
256.3912°
True anomaly
103.71073°
Mean anomaly
103.5981°
Eccentric anomaly
103.65442°
Mean motion
4.05934 °/min
Orbital period
88.68 mins
BSTAR
0.0022859
Loading maneuver chart data...
Computing Atmospheric mass density...

Documentation

Showing up to 5 results
|